Weather in Gianyar

Indonesia     8°32′38″S   115°19′29″E
temp.,
°C
wind,
m/s
gust,
m/s
humid.,
%
clouds,
%
prec.,
mm/h
press.,
hPa
HPBL,
m
28 june, tue
tue2823:00+22ese2794100 0.8 1013317
02:00+21ese169484 1.8 1012186
05:00+20ene159490 0.6 1012110
08:00+22e168894 0.8 1013203
11:00+26se345865 0.1 10121449
14:00+27se33519 0.1 10091457
17:00+24se246414 0.0 1009831
20:00+20nne228359 0.0 101142
29 june, wed
wed2923:00+20n118529 0.0 101236
02:00+21nne1189100 0.2 101025
05:00+21ene1190100 0.4 101030
08:00+22ne0192100 1.2 101187
11:00+26se237575 0.8 1011893
14:00+27sse3368100 1.3 10081140
17:00+25se237666 0.1 1008759
20:00+22ne1195100 0.3 101027
30 june, thu
thu3023:00+22nne1196100 0.3 101128
02:00+21n1196100 0.5 101038
05:00+22ene1294100 0.3 101066
08:00+23e1590100 0.9 1011376
11:00+26ese3575100 1.2 1010975
14:00+27se4570100 2.4 10091059
17:00+24ese3686100 0.9 1009583
20:00+23ese2892100 1.4 1011481
1 july, fri
fri123:00+22ese289597 0.9 1012394
02:00+22e289688 1.8 1011418
05:00+22e289498 0.6 1010430
08:00+22e2893100 1.0 1012476
11:00+25ese378483 1.8 1012828
14:00+25ese478460 4.2 1010819
17:00+23ese2892100 1.3 1010519
20:00+22e289299 1.8 1012407
2 july, sat
sat223:00+22e2794100 0.4 1012385
02:00+22e1695100 1.1 1011297
05:00+22e1597100 0.9 1010274
08:00+22e1795100 2.3 1012447
11:00+23ese279593 1.4 1012619
14:00+23ese279492 3.1 1010610
17:00+22ese279598 1.2 1009438
20:00+22ese2797100 1.9 1011484